Volver al catálogo

COSMOS 1275 DEB

ActivoPO
NORAD 13802·DEBRIS·🇷🇺 Russia

Lanzado Jun 4, 1981 desde Plesetsk Cosmodrome

Loading…

Próximos Pases (próximas 24 horas)

TLE

ActualizadoSource: Space-Track

Época: Sep 14, 2026, 18:56 UTC

1 13802U 81053GW  26257.78925051  .00000548  00000-0  50805-3 0  9998
2 13802  82.8037  13.0880 0059012 331.0704 181.6661 13.79924835237786

Sigue COSMOS 1275 DEB en tiempo real con AllMySat

Download on the App Store